User: anonymous   Login
Location: Newark
(47.5500°N, 8.6167°E)
Time: 12:36:29
(UTC+00:00)
Language:

AO-7 - Orbit

View from above orbital plane
View from above orbital plane
View from above satellite
View from above satellite

Ground track
Ground track

The orbit data is extracted from the following two-line orbital elements,

1  7530U 74089B   20095.18577733 -.00000029  00000-0  98745-4 0  9999
2  7530 101.7923  65.3648 0012333 145.5471 284.3200 12.53642845 76924
Epoch (UTC): 04 April 2020 04:27:31
Eccentricity: 0.0012333
inclination: 101.7923°
perigee height: 1439 km
apogee height: 1459 km
right ascension of ascending node: 65.3648°
argument of perigee: 145.5471°
revolutions per day: 12.53642845
mean anomaly at epoch: 284.3200°
orbit number at epoch: 7692

The dashed part of the orbit path shows where the satellite is in the earth's shadow,  

DLR